Location: Usti nad Labem
(50.6670°N, 14.0330°E)
Time: 08:35:29
(UTC+02:00)

ISS - Visible Passes

Search period start: 03 August 2015 00:00
Search period end: 13 August 2015 00:00
Orbit: 401 x 403 km, 51.6° (Epoch: 02 August)

Date Brightness Start Highest point End Pass type
(mag) Time Alt. Az. Time Alt. Az. Time Alt. Az.
03 Aug -3.0 00:19:42 10° W 00:22:37 63° NW 00:22:37 63° NW visible
03 Aug -3.1 21:50:23 10° SW 21:53:32 47° SSE 21:56:42 10° E visible
03 Aug -3.2 23:26:39 10° W 23:29:55 75° N 23:31:26 29° ENE visible
04 Aug -1.0 01:03:09 10° WNW 01:04:01 17° WNW 01:04:01 17° WNW visible
04 Aug -3.4 22:33:35 10° WSW 22:36:51 87° NNW 22:40:08 10° ENE visible
05 Aug -2.8 00:10:07 10° W 00:12:46 54° WNW 00:12:46 54° WNW visible
05 Aug -3.4 21:40:34 10° WSW 21:43:49 74° SSE 21:47:05 10° ENE visible
05 Aug -3.2 23:17:02 10° W 23:20:19 72° N 23:21:28 36° ENE visible
06 Aug -0.7 00:53:31 10° WNW 00:54:02 14° W 00:54:02 14° W visible
06 Aug -3.2 22:23:57 10° W 22:27:12 73° N 22:30:09 12° E visible
07 Aug -2.4 00:00:27 10° WNW 00:02:43 41° W 00:02:43 41° W visible
07 Aug -3.3 21:30:51 10° W 21:34:07 83° NNW 21:37:24 10° ENE visible
07 Aug -3.4 23:07:22 10° WNW 23:10:39 81° N 23:11:23 50° E visible
08 Aug -0.4 00:43:53 10° W 00:43:58 10° W 00:43:58 10° W visible
08 Aug -3.2 22:14:16 10° W 22:17:32 73° N 22:20:02 16° E visible
08 Aug -1.9 23:50:45 10° WNW 23:52:37 30° W 23:52:37 30° W visible
09 Aug -3.1 21:21:08 10° W 21:24:24 72° N 21:27:41 10° E visible
09 Aug -3.5 22:57:38 10° WNW 23:00:54 76° SSW 23:01:16 65° SE visible
10 Aug -3.4 22:04:32 10° WNW 22:07:48 85° N 22:09:57 20° E visible
10 Aug -1.4 23:41:05 10° W 23:42:32 21° W 23:42:32 21° W visible
11 Aug -3.2 21:11:24 10° W 21:14:40 74° N 21:17:56 10° E visible
11 Aug -3.1 22:47:53 10° W 22:51:03 49° SSW 22:51:12 49° SSW visible
12 Aug -3.3 21:54:43 10° WNW 21:57:59 71° SSW 21:59:54 22° ESE visible
12 Aug -0.8 23:31:37 10° W 23:32:28 14° WSW 23:32:28 14° WSW visible
